Tracking 32577 objects as of 14-Dec-2025
HD Live streaming from Space Station
objects crossing your sky now

STARLINK-11409

Track STARLINK-11409 now!
10-day predictions
STARLINK-11409 is classified as:


NORAD ID: 63061
Int'l Code: 2025-035K
Perigee: 362.7 km
Apogee: 364.7 km
Inclination: 43.0 °
Period: 91.7 minutes
Semi major axis: 6734 km
RCS: Unknown
Launch date: February 21, 2025
Source: United States (US)
Launch site: AIR FORCE EASTERN TEST RANGE (AFETR)
Your satellite tracking list
Your tracking list is empty




NASA's NSSDC Master Catalog

Two Line Element Set (TLE):
1 63061U 25035K   25347.88233649  .00211305  00000-0  16095-2 0  9990
2 63061  42.9994 172.7335 0001503 249.0892 110.9815 15.70827980 47728
Source of the keplerian elements: AFSPC